Regional Weather Roundup
Issued by NWS

Home | Current Version | Previous Version | Graphics & Text | Print | Product List | Glossary On
Versions: 1 2 3 4 5 6 7 8 9 10 11 12 13 14 15 16 17 18 19 20 21 22 23 24 25 26 27 28 29 30 31 32 33 34 35 36 37 38 39 40 41 42 43 44 45 46 47 48 49 50
948
ASUS43 KOAX 282310
RWRNE

WEATHER ROUNDUP FOR NEBRASKA
NATIONAL WEATHER SERVICE OMAHA NE
600 PM CDT SAT MAY 28 2016

NOTES: SATELLITE DATA IS BEING USED TO AUGMENT CLOUD COVER ABOVE
       12000 FEET.
       "FAIR" INDICATES FEW OR NO CLOUDS BELOW 12,000 FEET WITH NO
       SIGNIFICANT WEATHER AND/OR OBSTRUCTIONS TO VISIBILITY.

  * THESE STATIONS DO NOT REPORT WEATHER SUCH AS RAIN...SNOW OR FOG.

NEZ001>004-019>022-054>056-290000-
NEBRASKA PANHANDLE

CITY           SKY/WX    TMP DP  RH WIND       PRES   REMARKS
SCOTTSBLUFF    PTSUNNY   77  43  29 NW13G20   29.94R
ALLIANCE       CLOUDY    64  48  56 N10       29.96R THUNDER
CHADRON        LGT RAIN  57  50  77 NW15G30   29.98R
KIMBALL        CLOUDY    69  40  35 SW12      30.01S
SIDNEY         CLOUDY    66  52  60 SW12      29.98S
$$

NEZ057>060-069>072-079>082-290000-
SOUTHWEST NEBRASKA

CITY           SKY/WX    TMP DP  RH WIND       PRES   REMARKS
NORTH PLATTE   SUNNY     75  50  41 W5        29.92S
IMPERIAL       SUNNY     75  46  35 W7        29.95S
LEXINGTON      MOSUNNY   73  54  51 W7        29.92R
MCCOOK         MOSUNNY   76  49  38 W12       29.94R
OGALLALA       SUNNY     74  44  35 W5        29.95R
$$

NEZ005>010-023>029-035>040-094-290000-
NORTH CENTRAL NEBRASKA

CITY           SKY/WX    TMP DP  RH WIND       PRES   REMARKS
VALENTINE      MOSUNNY   74  48  39 N8        29.90S
AINSWORTH      MOSUNNY   71  50  46 NW10      29.91R
BROKEN BOW     MOSUNNY   75  51  43 N9        29.90S
O`NEILL        CLOUDY    66  59  78 N8        29.90S
ORD            MOSUNNY   74  51  44 NW12      29.88R
THEDFORD       MOSUNNY   75  49  39 NW9       29.92S
$$

NEZ041-046>049-061>064-073>077-083>087-290000-
SOUTH CENTRAL NEBRASKA

CITY           SKY/WX    TMP DP  RH WIND       PRES   REMARKS
GRAND ISLAND   SUNNY     75  51  43 W14       29.89S
AURORA         MOSUNNY   74  54  50 NW10      29.89S
HASTINGS       MOSUNNY   75  53  46 NW14      29.90S
HEBRON         PTSUNNY   74  55  51 W10       29.90R
HOLDREGE       SUNNY     73  49  42 W8        29.92R
KEARNEY *      MOSUNNY   75  50  41 NW12      29.92S
YORK           SUNNY     73  55  53 NW16      29.88S
$$

NEZ011>018-030>034-042>045-290000-
NORTHEAST NEBRASKA

CITY           SKY/WX    TMP DP  RH WIND       PRES   REMARKS
NORFOLK        MOSUNNY   65  55  70 NW15G25   29.86R
ALBION         MOSUNNY   70  55  58 NW15      29.89R
BLAIR          MOSUNNY   72  57  60 W20G29    29.83S
FREMONT        MOSUNNY   72  57  59 W18       29.85R
TEKAMAH        PTSUNNY   73  55  53 W22G31    29.81R
WAYNE          CLOUDY    66  60  80 W17       29.85R
$$

NEZ050>053-065>068-078-088>093-290000-
SOUTHEAST NEBRASKA

CITY           SKY/WX    TMP DP  RH WIND       PRES   REMARKS
LINCOLN        SUNNY     76  55  48 W14       29.87R
OMAHA EPPLEY   PTSUNNY   74  56  53 W16G24    29.82R
BEATRICE       MOSUNNY   75  57  53 W14       29.88S
FALLS CITY     PTSUNNY   74  57  55 W15       29.87R
NEBRASKA CITY  SUNNY     74  56  53 W15       29.86S
PLATTSMOUTH    PTSUNNY   75  57  53 W12       29.85S
$$

NEZ044-045-051>053-067-290000-
OMAHA AREA

CITY           SKY/WX    TMP DP  RH WIND       PRES   REMARKS
OMAHA EPPLEY   PTSUNNY   74  56  53 W16G24    29.82R
BLAIR          MOSUNNY   72  57  60 W20G29    29.83S
FREMONT        MOSUNNY   72  57  59 W18       29.85R
MILLARD        SUNNY     74  53  47 W16G22    29.84R
OFFUTT AFB     MOSUNNY   74  55  51 W15G26    29.83R
PLATTSMOUTH    PTSUNNY   75  57  53 W12       29.85S
WAHOO          FAIR      73  57  57 W16       29.85R
$$




USA.gov is the U.S. government's official web portal to all federal, state and local government web resources and services.